This is the latest recevied weather packets stored in our database for station/object NG7N. If no packets are shown the sender has not sent any weather packets the latest 10 day(s).
| Time | Temp. | Humidity | Pressure | Rain* | Wind** | Luminosity | Snow |
|---|---|---|---|---|---|---|---|
| 1777066155 | 14.44° C | 50% | 1018.6 hPa | 0 mm | - | - | - |
| 1777065855 | 14.44° C | 50% | 1018.6 hPa | 0 mm | - | - | - |
| 1777065255 | 14.44° C | 45% | 1018.9 hPa | 0 mm | - | - | - |
| 1777064956 | 14.44° C | 45% | 1018.9 hPa | 0 mm | - | - | - |
| 1777064656 | 14.44° C | 44% | 1018.9 hPa | 0 mm | - | - | - |
| 1777064355 | 14.44° C | 44% | 1018.9 hPa | 0 mm | - | - | - |
| 1777063756 | 14.44° C | 46% | 1018.9 hPa | 0 mm | - | - | - |
| 1777063155 | 14.44° C | 51% | 1018.9 hPa | 0 mm | - | - | - |
| 1777062855 | 14.44° C | 50% | 1018.9 hPa | 0 mm | - | - | - |
| 1777062255 | 14.44° C | 45% | 1019.2 hPa | 0 mm | - | - | - |
| 1777061955 | 13.89° C | 53% | 1019.2 hPa | 0 mm | - | - | - |
| 1777061355 | 13.89° C | 57% | 1019.5 hPa | 0 mm | - | - | - |
| 1777061055 | 13.89° C | 59% | 1019.5 hPa | 0 mm | - | - | - |
| 1777060455 | 13.33° C | 60% | 1019.9 hPa | 0 mm | - | - | - |
| 1777060155 | 13.33° C | 62% | 1019.9 hPa | 0 mm | - | - | - |
| 1777059555 | 13.33° C | 64% | 1020 hPa | 0 mm | - | - | - |
| 1777059255 | 13.33° C | 67% | 1020 hPa | 0 mm | - | - | - |
| 1777058356 | 12.78° C | 70% | 1020.1 hPa | 0 mm | - | - | - |
| 1777058055 | 12.22° C | 73% | 1020.1 hPa | 0 mm | - | - | - |
| 1777057454 | 12.22° C | 76% | 1020.1 hPa | 0 mm | - | - | - |
| 1777057155 | 12.22° C | 76% | 1020 hPa | 0 mm | - | - | - |
| 1777056555 | 12.22° C | 77% | 1020 hPa | 0 mm | - | - | - |
| 1777055655 | 11.67° C | 79% | 1020.3 hPa | 0 mm | - | - | - |
| 1777055355 | 11.67° C | 78% | 1020.5 hPa | 0 mm | - | - | - |
| 1777054755 | 11.67° C | 79% | 1020.5 hPa | 0 mm | - | - | - |
* Rain latest hour (hover to see other rain measurements)
** Current wind speed in m/s (hover to see current wind gust speed)